Wind_Speed
20 20 21 22 21 21 21 19 18 16 11 12 14 14 14 14 13 14 13 13 12 10 8 7 9 12 13 13 14 13 13 13 13 14 13 13 12 10 10 11 10 9 9 10 10 10 10 9 9 8 7 7 6 6 5 5 4 4 3 3 3 4 4 5 5 7 9 11 13 13 13 14 15 15 16 17 19 20 20 20 21 22 22 24 27 28
21 22 22 21 19 19 19 18 19 15 9 9 15 15 13 14 14 15 16 13 11 10 8 8 9 11 14 14 15 15 14 14 14 15 15 15 14 12 10 10 9 9 9 11 11 11 11 10 10 9 7 7 7 7 7 7 6 5 4 3 2 2 2 3 4 6 8 11 12 13 14 14 14 15 16 17 19 19 19 20 22 24 25 26 28 29
24 24 22 20 19 18 19 20 19 14 11 11 15 16 16 15 14 14 15 12 10 11 9 9 9 11 15 15 16 16 15 14 15 15 16 15 16 15 13 11 10 10 11 12 13 13 12 11 11 10 9 9 9 9 9 8 8 7 6 4 2 1 1 2 4 6 8 10 12 14 15 15 14 16 18 19 20 22 22 23 25 27 28 28 29 29
25 24 22 21 20 17 17 18 17 14 13 14 14 16 16 14 13 13 13 12 12 13 11 10 11 12 14 15 16 16 14 14 15 15 16 16 17 17 15 15 14 13 13 13 12 13 13 13 13 12 11 11 10 10 10 10 9 8 7 6 5 4 4 4 5 6 8 10 11 13 15 16 17 18 20 21 21 23 24 23 25 26 25 26 27 28
23 23 22 21 20 17 16 16 16 16 16 16 16 16 16 14 13 11 12 13 13 14 12 10 11 14 15 16 16 15 14 15 15 16 17 17 18 17 16 17 16 15 15 13 13 14 14 14 14 13 12 12 12 11 10 10 10 9 8 8 7 7 7 8 8 9 10 11 12 14 15 17 18 19 20 21 21 23 23 22 24 24 22 23 25 25
20 21 23 22 19 18 18 18 18 18 16 16 18 18 17 15 13 13 14 13 12 13 15 14 11 11 15 16 14 15 16 16 16 18 18 19 19 19 19 19 18 17 17 15 15 15 15 16 16 15 13 12 11 11 10 9 9 8 8 8 8 9 10 11 12 13 13 14 14 15 16 18 19 20 20 20 21 22 22 22 22 23 22 22 22 23
18 19 22 21 18 19 20 20 18 19 18 16 18 20 17 12 9 13 13 12 12 15 16 18 15 10 13 16 15 16 19 18 18 20 21 22 23 23 22 22 20 20 18 15 16 18 17 17 17 16 14 12 11 10 9 8 8 7 7 8 8 10 11 13 15 16 16 16 16 16 17 19 20 21 21 21 22 22 20 21 21 21 21 20 19 20
17 18 21 20 19 20 21 21 18 20 20 10 11 19 16 11 11 12 9 9 14 18 14 15 16 15 16 17 16 18 21 20 21 22 23 25 26 25 24 24 22 23 21 17 18 21 19 17 18 18 16 13 11 10 9 7 6 5 5 6 7 10 13 15 18 19 20 19 18 18 17 18 19 20 20 21 22 21 20 20 20 19 19 19 18 18
17 19 22 21 21 21 21 21 18 21 19 3 3 13 15 13 14 13 11 13 16 14 10 11 12 14 15 15 15 18 21 22 23 23 24 25 27 27 26 26 24 23 23 20 20 22 20 18 17 18 17 13 11 10 8 6 5 3 3 4 7 11 14 18 21 24 24 22 21 20 19 18 19 19 19 19 19 20 19 20 20 19 19 19 19 19
18 20 20 22 23 22 22 21 20 22 17 5 2 8 10 11 14 13 14 18 16 11 10 12 14 13 13 17 18 18 19 20 22 23 24 25 27 29 29 27 26 25 23 20 21 23 22 19 17 17 18 15 13 11 9 7 5 2 1 4 7 11 15 19 23 27 27 25 23 22 21 20 19 19 18 18 18 19 19 19 20 20 21 21 21 20
16 19 19 23 23 20 19 16 17 20 14 6 7 9 9 11 12 12 13 15 12 10 13 17 19 16 11 16 20 20 20 19 19 22 24 25 28 30 30 29 29 28 25 20 20 24 23 20 18 18 19 18 16 13 11 8 6 4 3 5 7 11 15 19 23 28 30 28 25 23 23 22 20 19 18 18 18 19 19 19 20 20 20 21 20 20
15 20 21 24 19 15 17 15 14 16 13 9 12 12 12 12 10 10 13 12 9 9 14 18 20 19 13 13 15 16 18 17 17 20 22 25 28 30 31 31 30 31 29 22 21 26 25 22 22 20 19 21 20 16 13 11 8 7 6 6 8 11 14 18 22 27 30 30 27 25 23 22 21 20 19 19 19 19 19 19 19 19 19 19 19 19
17 22 22 22 19 14 17 19 16 16 16 15 15 15 13 11 9 9 11 10 10 11 13 14 15 15 14 14 15 14 14 14 14 15 17 21 26 30 32 32 31 33 31 26 24 27 27 24 24 23 22 23 23 20 17 14 12 10 9 8 9 11 14 17 22 27 30 31 29 26 25 23 22 21 20 19 19 19 18 18 19 19 19 19 18 19
19 23 24 23 21 19 18 19 19 18 19 18 17 16 14 10 6 7 8 8 10 13 13 12 10 11 14 15 15 16 15 13 12 12 14 17 21 27 31 31 31 32 32 30 29 29 28 26 25 26 26 24 23 23 20 17 16 14 11 10 11 12 14 17 21 26 30 32 30 28 25 24 23 22 21 20 19 19 18 19 19 19 19 19 19 19
19 21 25 26 23 22 21 18 17 17 18 18 17 15 15 13 9 6 7 7 9 10 11 11 7 10 13 10 7 10 11 11 11 11 14 15 17 22 26 30 30 31 33 33 33 31 30 29 27 27 28 24 23 25 22 20 19 17 14 12 12 12 14 17 20 25 30 32 32 30 27 25 24 23 23 21 20 19 19 20 20 20 20 20 20 20
19 19 24 26 23 23 23 19 16 15 17 17 16 17 16 17 14 10 8 8 9 8 6 10 9 12 13 10 8 9 9 11 11 11 14 16 18 19 23 28 30 31 32 34 35 35 33 32 28 28 30 26 24 25 23 21 22 21 17 14 13 13 14 17 20 24 28 31 33 32 30 27 25 24 24 22 21 20 20 21 21 21 21 21 21 20
19 19 25 26 22 24 24 20 17 17 17 15 17 19 16 14 13 13 11 10 11 9 6 10 13 12 12 14 14 12 8 9 10 11 13 15 19 21 23 26 30 31 30 32 36 35 33 33 30 30 34 29 24 23 21 22 25 24 19 15 14 14 15 17 19 23 27 30 33 33 32 30 28 26 25 24 23 22 21 22 22 22 22 21 20 19
17 16 25 28 22 22 23 20 19 19 17 14 16 18 14 10 10 12 9 7 8 8 8 11 13 11 10 9 10 12 8 8 9 9 10 13 17 21 23 26 30 32 31 32 35 34 34 35 33 33 34 29 26 23 19 21 26 25 20 17 15 15 16 17 19 22 26 30 32 34 34 32 29 27 26 24 23 23 22 22 22 22 21 20 19 18
19 13 23 27 22 21 22 21 21 21 19 14 11 14 15 13 11 11 9 6 6 6 8 11 11 11 11 7 10 11 7 6 8 9 9 11 15 18 21 24 28 31 30 32 36 35 35 34 32 33 33 30 29 25 20 22 26 26 22 19 17 17 17 18 19 21 26 29 31 34 35 33 31 28 26 24 23 23 22 21 21 20 20 20 19 18
21 16 18 24 23 21 23 24 23 22 22 17 11 10 14 14 12 12 13 11 9 6 6 7 7 7 8 9 11 8 4 4 6 8 9 10 11 15 18 20 24 29 31 34 37 37 36 34 31 32 31 30 31 28 23 23 26 26 24 21 20 19 18 19 20 22 25 29 31 34 36 34 32 29 26 23 22 22 21 21 20 19 20 21 20 19
17 17 15 19 23 22 23 25 25 23 23 22 18 15 16 16 12 9 13 15 12 7 5 5 6 3 3 6 8 5 2 4 6 8 9 9 10 12 15 17 21 26 31 34 37 37 35 32 30 33 31 29 33 33 25 23 25 26 25 22 21 21 20 20 21 22 25 29 30 34 36 35 33 30 26 23 22 22 22 22 21 21 20 20 20 20
15 18 17 18 21 22 23 25 25 24 23 24 23 21 19 18 15 10 10 15 14 11 8 6 8 4 9 11 7 4 2 3 4 6 7 8 9 10 13 16 18 21 25 30 35 35 33 30 28 31 31 31 37 35 26 23 26 27 27 25 23 23 22 22 22 22 25 28 30 33 36 35 33 31 27 24 23 23 24 24 24 23 22 20 20 20
17 18 19 19 19 19 20 23 25 25 23 21 22 23 22 20 19 15 11 13 14 13 13 10 9 5 8 8 4 4 1 3 5 6 6 6 8 9 10 13 16 18 19 26 30 30 30 30 26 27 28 33 39 36 29 27 28 28 29 28 25 24 23 23 24 24 25 28 30 32 35 35 33 30 28 25 25 25 25 24 22 20 22 22 21 21
21 21 21 20 19 18 18 20 24 24 22 22 22 23 24 22 21 19 16 14 12 12 12 10 9 6 6 6 4 3 2 6 5 6 6 6 7 9 10 12 15 16 16 21 25 25 27 29 27 27 28 35 40 37 32 31 30 30 31 30 28 26 25 24 25 26 27 28 30 32 34 34 32 29 27 25 25 26 26 24 18 16 20 23 22 21
23 23 23 21 17 16 16 16 20 24 24 24 23 22 24 23 21 21 20 15 10 12 13 12 11 6 7 7 4 2 5 5 5 5 6 6 7 8 11 13 15 16 16 19 21 23 25 27 29 29 29 35 39 36 32 32 32 32 32 30 28 29 27 25 25 26 28 29 31 32 33 33 31 29 26 25 25 25 25 23 20 19 20 22 23 23
24 24 24 22 16 13 15 16 18 22 24 25 25 24 24 23 23 22 21 17 13 15 18 19 16 7 8 4 2 4 5 4 5 6 7 8 9 9 10 13 15 16 17 19 21 23 24 25 28 28 27 32 36 34 33 33 33 34 34 31 30 30 29 26 26 26 27 29 31 32 33 32 30 28 26 25 25 25 24 23 23 21 19 20 23 24
21 23 24 26 26 22 19 19 19 20 23 24 25 26 26 25 25 24 23 22 18 17 20 21 18 11 9 8 7 6 6 6 7 10 10 11 12 11 12 16 19 18 18 20 22 24 26 26 26 26 28 32 34 34 33 33 34 35 34 32 32 31 28 26 26 26 27 28 30 32 32 31 30 28 25 24 24 24 24 23 23 21 20 22 23 24
18 22 24 26 30 30 23 20 22 24 26 26 25 28 28 27 26 26 27 26 21 19 19 17 16 19 21 18 13 12 12 11 11 12 13 13 14 14 16 19 22 21 19 21 24 26 29 29 27 27 29 31 32 33 33 34 36 36 35 35 34 30 28 27 26 25 27 28 30 31 31 30 29 26 24 22 23 23 23 23 23 22 23 23 23 25
20 22 23 21 24 27 26 26 25 24 25 25 25 27 29 28 27 27 27 26 25 24 20 15 15 18 19 17 16 16 15 14 14 15 15 16 16 16 18 21 22 22 20 21 24 27 31 31 30 29 30 32 33 33 34 36 37 37 37 37 33 29 28 27 25 25 27 29 30 31 31 29 26 23 22 22 23 23 23 23 23 23 23 24 24 25
22 22 21 22 25 27 29 30 28 24 23 25 26 27 27 27 28 28 27 27 27 27 24 20 21 21 18 18 19 19 18 18 20 20 19 18 18 18 19 21 23 23 23 23 24 27 31 32 32 31 31 33 33 33 35 37 37 39 40 35 29 27 26 25 24 25 27 29 30 30 30 27 23 21 22 23 24 24 23 24 23 22 22 24 24 25
23 22 21 24 27 25 27 29 27 25 24 26 28 28 27 27 27 28 28 28 28 28 24 21 22 21 18 18 19 18 17 19 20 20 19 18 19 19 18 20 22 23 25 25 24 26 30 33 34 33 33 34 33 33 36 37 38 40 38 31 27 27 25 23 24 26 27 28 29 30 28 24 21 21 22 24 24 24 24 23 23 22 23 24 25 26
21 21 20 21 21 21 24 23 21 24 27 29 31 30 29 29 29 28 28 27 27 26 20 17 19 19 17 16 17 15 14 17 18 17 17 18 18 17 18 21 23 24 25 26 25 25 28 32 35 35 35 34 33 34 36 37 38 37 33 27 25 25 23 23 24 26 27 28 28 29 25 22 21 22 22 23 23 24 23 23 23 23 25 25 26 27
18 20 20 19 19 22 24 22 22 24 26 27 30 30 30 30 28 27 27 26 23 20 17 16 18 17 15 14 14 14 15 17 18 18 21 22 20 20 22 25 26 26 27 28 27 25 25 29 33 35 36 34 33 34 34 35 36 33 28 25 24 22 23 24 25 26 27 26 27 26 23 21 21 21 21 22 22 22 23 23 23 24 26 26 27 28
19 20 19 17 18 21 22 22 23 22 20 22 25 25 27 28 26 26 25 22 18 15 15 17 17 16 14 13 13 15 17 18 20 23 25 25 23 22 23 24 25 26 27 28 27 25 24 25 28 31 34 33 32 33 32 31 31 29 25 24 23 21 22 24 26 27 26 25 25 23 21 20 21 21 22 23 22 22 23 24 25 26 26 27 28 28
21 22 21 19 19 21 21 19 18 17 19 21 20 17 19 20 22 24 23 20 18 17 18 19 18 16 14 13 14 15 15 16 19 21 21 20 19 18 18 18 19 22 24 25 25 24 24 24 25 26 30 32 32 30 29 28 28 26 25 24 22 21 23 25 27 27 24 23 24 22 20 20 21 21 22 22 23 24 25 26 27 27 27 27 27 28
19 20 21 21 21 21 21 18 13 11 14 16 15 14 16 17 19 22 23 21 20 19 19 18 17 16 14 14 14 14 14 15 18 19 17 16 16 15 15 16 16 18 20 22 23 24 24 25 25 24 28 31 31 28 27 26 25 26 26 23 21 22 24 25 26 25 23 22 23 21 19 19 21 22 22 22 24 26 28 29 30 29 29 28 28 28
18 17 19 21 21 20 22 23 19 13 12 13 14 15 16 17 17 18 19 20 19 17 16 16 15 14 14 13 12 12 12 13 16 17 15 13 14 14 14 15 17 18 19 20 22 23 24 24 24 24 26 28 28 27 25 24 25 26 24 21 22 24 25 25 24 22 22 23 22 20 18 20 22 23 23 24 25 26 29 32 32 30 29 30 29 28
18 19 17 18 20 21 22 23 19 15 15 16 15 14 14 14 14 13 14 16 16 15 15 16 15 14 12 11 11 11 11 12 15 15 11 11 11 12 12 13 16 17 18 19 21 22 22 23 23 24 25 26 26 24 23 23 24 23 21 21 22 24 25 26 23 21 21 22 20 18 19 21 23 24 26 27 27 28 30 31 31 31 30 29 28 28
19 21 20 20 21 22 23 22 18 16 18 18 16 15 17 17 14 11 12 14 14 14 16 17 16 14 11 10 10 9 9 11 12 10 6 8 9 11 12 13 14 17 17 18 19 19 20 20 22 23 25 25 24 22 22 22 21 20 20 20 21 23 26 26 24 21 20 20 19 20 23 25 25 26 28 30 30 30 30 29 30 32 32 30 28 27
21 21 21 23 23 22 21 21 21 20 19 16 15 15 15 15 13 11 12 13 11 10 10 11 11 10 9 8 10 10 10 12 12 10 7 8 10 13 14 13 14 16 16 16 16 17 17 17 18 20 23 22 21 21 20 20 20 20 21 22 22 24 25 25 25 22 20 20 21 24 28 29 29 30 32 32 33 32 30 29 30 32 33 32 28 26
23 23 22 24 25 24 23 23 23 21 14 10 12 13 11 13 15 15 12 8 4 5 6 8 9 8 8 8 10 11 12 13 13 13 12 11 13 16 16 13 14 15 15 15 14 14 14 14 14 17 17 16 17 18 19 20 21 22 23 25 26 24 22 22 23 23 23 24 25 27 30 30 32 35 35 33 33 32 30 29 31 33 34 32 29 28
23 23 23 24 24 24 25 26 26 21 14 11 12 13 14 16 16 14 10 6 6 6 5 7 10 10 10 10 10 12 13 14 14 15 14 13 16 18 17 15 15 16 15 14 13 14 14 13 13 14 14 14 17 18 20 22 23 23 24 26 26 23 21 22 23 25 27 28 28 29 32 33 35 39 38 34 33 32 30 31 33 35 36 33 29 31
20 21 23 24 24 23 25 26 22 15 12 12 12 12 16 18 14 10 9 7 8 9 8 8 9 11 12 13 13 14 16 16 17 16 14 16 20 20 18 17 17 17 16 14 12 14 15 15 15 16 17 18 19 20 22 23 22 21 24 25 24 22 22 24 26 28 29 30 30 32 35 36 37 40 38 33 32 32 32 33 35 37 37 33 31 33
17 18 19 18 17 19 21 17 10 4 5 9 11 11 12 14 16 16 14 11 9 10 12 11 11 13 16 18 20 22 22 20 19 18 17 21 24 22 19 19 19 18 17 14 14 14 15 15 16 16 18 19 18 19 22 22 20 21 23 24 23 23 24 25 29 31 30 32 34 35 36 38 39 41 37 32 32 33 33 35 37 37 37 36 34 35
17 18 18 13 9 11 10 4 2 3 4 6 9 11 8 7 13 19 20 17 14 13 13 14 15 16 20 23 26 29 28 23 21 21 21 22 24 22 20 21 20 20 17 15 17 17 16 16 16 17 18 19 19 20 21 20 21 22 23 22 24 26 27 29 32 32 33 36 36 35 36 38 41 42 38 33 33 35 35 36 37 37 37 36 34 35
15 18 20 16 12 11 9 7 6 7 5 4 6 8 6 5 10 18 21 19 18 18 19 21 22 23 25 27 28 29 27 22 22 24 22 20 20 22 22 22 22 21 18 17 18 18 17 17 16 17 20 22 22 22 22 22 23 23 22 23 28 31 32 33 34 34 36 37 36 35 37 39 41 42 39 37 37 37 35 34 35 37 38 35 33 35
10 15 16 14 13 12 13 13 11 8 8 7 5 7 11 14 16 20 21 20 20 22 22 23 25 26 25 25 26 27 26 23 22 23 21 20 22 24 23 23 24 24 24 22 18 16 17 18 17 18 22 24 22 22 23 23 22 22 23 27 32 35 36 36 36 36 38 37 37 38 40 40 40 40 40 41 42 38 32 31 33 35 37 36 36 36
10 14 14 13 13 13 11 12 11 10 10 10 8 12 19 22 22 22 22 22 23 23 22 23 25 24 22 22 24 26 25 21 19 20 22 25 27 26 24 24 25 25 24 21 17 15 17 18 18 19 22 22 20 20 22 23 23 25 28 32 34 37 39 39 38 37 36 35 36 38 39 39 39 40 41 42 41 35 31 30 31 32 35 37 37 36
12 12 11 12 14 13 10 12 15 16 13 9 9 16 22 24 23 23 23 23 23 22 22 23 22 22 22 20 21 26 25 19 18 24 28 28 28 27 24 24 24 23 20 18 17 17 18 18 19 20 21 20 21 22 24 25 26 28 31 35 37 38 40 40 39 37 34 32 33 35 37 38 38 39 39 37 33 31 32 33 32 32 34 36 35 35
12 12 11 13 15 13 12 16 17 15 13 13 12 16 19 21 22 22 22 21 21 20 20 20 20 22 22 17 18 24 26 22 24 28 28 25 26 25 23 21 22 22 20 19 19 19 19 20 20 21 21 21 23 24 26 27 30 30 32 36 40 40 39 38 36 34 32 30 31 34 36 36 36 36 35 33 31 31 34 36 34 32 32 33 34 33
14 14 11 11 12 9 11 20 21 17 18 22 22 19 19 20 21 21 20 20 18 18 19 21 23 25 23 21 21 21 20 22 26 26 23 22 24 24 21 20 22 23 21 20 20 19 19 20 20 21 22 23 24 26 28 31 34 34 34 37 39 38 36 34 32 31 30 29 30 33 35 35 35 34 33 33 34 33 32 33 33 31 31 31 31 29
Wind_Direction
189 195 200 205 200 201 204 203 205 207 199 197 209 216 201 189 192 198 191 180 186 204 203 174 162 166 173 177 177 175 174 175 174 174 176 178 184 178 173 183 179 174 181 177 176 175 170 168 165 166 170 174 178 176 176 176 175 182 188 211 239 259 266 272 282 283 288 293 295 297 298 301 304 299 295 296 298 298 298 296 294 292 290 289 288 287
197 204 203 206 203 203 206 206 210 220 238 213 205 215 208 196 201 195 182 173 187 217 210 177 178 181 182 184 182 182 180 179 183 181 179 179 181 182 177 174 174 177 179 173 174 177 174 172 169 165 165 164 159 152 147 140 137 139 144 161 200 233 261 288 291 290 292 291 293 298 299 299 298 295 294 293 294 293 291 292 291 287 287 287 286 287
203 211 207 205 205 203 203 208 215 226 245 229 209 211 206 199 196 187 181 177 192 218 208 187 204 195 184 189 187 188 188 185 190 189 184 182 180 183 180 174 175 176 176 175 174 175 176 176 172 165 158 151 142 133 128 124 118 116 117 114 105 96 3 322 310 305 301 297 300 303 303 299 290 289 290 287 287 288 286 287 287 286 287 287 286 287
203 212 206 203 206 206 202 207 215 217 220 224 217 208 209 205 188 184 194 193 200 218 212 197 213 204 186 192 192 191 196 193 194 194 190 188 185 183 181 182 182 176 181 184 175 175 179 178 172 164 155 147 143 136 129 124 114 107 103 92 79 66 43 5 344 330 315 309 307 304 304 300 293 292 291 289 291 290 289 289 288 288 290 291 291 290
205 210 205 206 207 205 205 204 208 214 210 217 222 211 211 211 201 213 216 195 198 221 224 208 214 209 190 191 195 196 201 198 198 199 195 195 192 185 182 187 185 181 188 188 181 184 182 178 173 164 155 151 149 141 131 125 113 105 96 82 67 52 33 17 4 348 333 322 312 305 301 297 295 296 294 294 296 293 293 294 292 293 294 293 292 292
209 207 204 208 205 200 207 208 206 214 210 209 219 219 221 215 199 215 215 189 199 227 227 216 220 214 194 194 202 203 206 204 204 203 202 202 198 191 188 191 188 187 194 189 187 194 186 183 181 170 164 159 153 147 137 126 114 102 86 70 53 38 24 13 5 355 345 335 324 315 307 302 300 298 298 298 297 296 298 299 298 299 299 297 295 293
212 202 201 204 203 199 208 211 205 211 217 213 209 211 229 238 214 219 210 183 211 237 226 215 226 226 206 214 222 217 213 211 213 212 211 210 205 198 193 194 192 190 197 192 189 198 195 192 191 182 178 171 162 156 147 132 116 100 79 62 43 28 15 7 2 355 349 341 332 323 313 308 305 304 305 305 303 303 304 302 302 303 302 301 299 297
207 192 194 197 200 201 206 210 202 207 220 223 193 194 211 236 235 239 228 203 233 244 221 204 225 233 221 221 219 215 215 216 220 219 216 218 217 210 201 199 199 194 198 199 194 200 200 196 197 193 188 185 180 170 157 142 123 103 75 52 30 17 9 4 1 356 350 344 337 331 322 315 310 307 308 308 307 308 308 305 304 305 305 305 303 303
192 189 193 195 201 200 203 207 197 203 217 222 128 191 198 219 234 241 239 233 240 246 226 208 232 246 237 229 216 211 216 219 223 220 216 220 223 222 213 206 206 201 199 200 198 203 206 201 199 198 197 197 195 186 172 159 140 114 67 34 14 8 5 2 1 357 353 346 339 334 329 323 317 312 310 310 309 310 310 308 307 308 309 309 309 309
190 197 195 193 198 196 201 207 196 200 216 215 184 203 199 218 235 232 232 237 232 227 238 234 231 238 243 239 226 214 219 223 221 218 219 222 222 223 220 212 211 209 206 206 205 206 209 207 204 203 203 205 203 196 188 181 172 167 358 357 356 358 359 0 0 358 355 349 342 336 333 331 325 319 316 314 311 311 310 308 308 310 310 310 310 310
192 196 194 192 197 198 200 203 189 195 213 210 194 201 204 215 228 229 234 249 245 226 241 243 229 223 235 246 230 212 217 227 224 220 223 226 222 220 218 213 211 213 217 221 214 211 212 211 211 210 209 210 211 205 201 198 199 215 265 315 338 348 352 356 358 357 355 352 347 341 336 334 330 326 323 319 315 313 311 309 308 308 307 307 307 307
184 184 189 193 199 197 190 188 183 192 206 209 202 200 205 204 208 229 232 240 254 245 247 247 231 214 217 251 244 218 212 216 222 227 227 225 220 217 216 213 209 213 223 230 219 213 215 213 214 218 217 217 216 213 211 212 214 227 255 296 321 337 345 350 353 354 355 353 349 345 340 337 335 331 328 323 318 315 311 308 306 305 305 306 306 307
191 191 190 192 197 193 186 187 188 193 200 208 209 203 204 201 199 225 226 219 236 244 244 245 236 224 229 248 252 249 239 222 219 229 232 227 220 216 216 215 210 210 219 229 223 215 217 217 219 222 223 221 219 217 218 219 220 230 253 284 308 325 337 344 349 352 353 353 350 347 343 341 339 336 331 325 320 317 313 308 306 306 306 306 307 309
191 194 192 193 198 198 196 192 189 193 199 205 210 205 209 215 208 218 227 227 236 241 232 222 229 246 258 261 249 248 252 244 238 234 233 231 221 216 216 215 213 209 212 224 229 225 222 222 223 223 224 224 222 220 219 222 226 231 249 276 297 315 329 338 345 350 352 352 350 347 343 341 340 337 332 327 323 318 314 310 308 307 307 307 309 310
188 190 189 193 197 196 200 200 193 192 198 207 213 212 217 228 231 229 232 234 240 245 223 194 203 245 256 265 243 229 239 249 255 242 230 229 222 219 217 215 214 210 211 221 231 235 231 229 228 223 223 227 225 221 220 225 230 232 246 271 292 309 323 333 342 347 349 350 350 348 344 340 339 337 332 328 324 318 313 310 309 308 308 308 310 311
193 190 188 194 197 195 200 204 198 197 202 207 213 215 218 224 233 247 250 251 267 276 221 192 222 248 252 260 244 236 243 244 247 239 230 229 225 222 219 217 215 212 212 218 227 236 235 231 231 223 223 229 224 221 225 228 231 235 246 269 290 305 318 328 336 343 345 347 350 350 346 342 338 336 332 328 324 319 314 312 310 310 311 312 314 315
197 197 189 192 197 198 205 206 200 207 207 197 205 219 221 220 232 247 247 242 258 278 252 225 239 242 246 255 236 219 224 229 235 238 233 231 229 226 221 217 213 210 213 216 223 235 235 231 232 226 224 229 223 223 230 229 229 235 246 266 287 300 311 320 330 337 341 344 347 349 347 343 338 335 331 328 324 320 317 314 313 314 316 316 316 317
208 200 177 183 196 199 206 208 202 216 220 199 201 216 218 217 238 261 263 227 222 250 254 244 249 246 247 247 201 188 206 223 227 232 234 235 235 231 223 217 218 220 221 218 221 232 236 236 236 229 224 225 225 233 238 229 227 234 246 264 280 293 304 313 323 331 336 339 343 346 345 342 338 334 331 327 323 320 318 315 316 317 318 318 317 316
208 195 164 179 200 195 200 209 204 214 227 223 216 214 211 211 219 234 246 239 223 237 247 236 238 251 255 227 171 176 205 224 228 232 236 241 240 238 232 223 224 228 222 216 220 229 237 240 234 227 225 224 228 243 246 229 227 235 248 262 274 286 297 306 316 325 331 335 338 341 342 339 336 333 330 327 323 319 317 317 318 319 319 319 319 317
198 203 178 184 198 193 198 211 208 206 213 223 236 224 216 221 221 210 213 238 250 239 251 248 236 254 258 219 184 175 190 219 243 242 236 243 242 242 243 232 225 226 223 225 232 235 239 241 231 227 231 227 232 247 246 233 233 239 251 263 271 280 291 300 309 319 326 330 334 336 338 337 334 331 328 325 322 318 317 317 317 318 318 319 318 318
201 213 205 190 192 195 202 208 210 207 200 208 224 223 214 217 230 224 208 224 243 250 268 266 249 254 92 140 170 171 211 234 253 252 238 242 244 240 246 241 232 234 235 236 238 238 240 239 230 232 236 229 234 246 246 241 243 247 255 266 270 276 286 294 302 313 320 325 329 332 334 335 332 329 325 323 321 319 317 316 316 317 318 318 316 315
209 210 211 196 189 201 211 208 209 213 205 203 213 222 224 218 221 230 217 219 235 251 252 249 260 242 111 117 146 149 166 236 259 264 248 244 247 243 244 242 243 249 244 233 233 238 243 240 236 242 240 227 230 241 247 249 251 252 259 267 269 273 282 289 296 306 315 320 324 328 331 332 330 327 323 320 321 321 320 321 321 319 319 319 318 316
216 216 214 204 198 212 224 213 209 216 218 215 213 218 226 224 219 223 230 228 229 239 243 247 260 229 132 114 125 142 164 288 280 265 252 250 255 253 247 241 246 256 249 236 239 248 246 239 243 253 241 221 224 236 245 250 252 256 261 267 270 273 279 287 294 302 310 314 317 322 328 328 326 325 321 318 320 322 325 327 325 320 320 321 320 318
218 222 221 216 214 219 224 218 212 213 223 228 222 217 219 222 220 220 232 240 235 235 239 241 247 228 157 140 161 184 285 310 292 252 236 244 254 257 256 247 247 256 255 247 249 253 248 237 240 249 238 222 226 237 244 248 253 257 261 265 269 272 276 283 290 298 306 309 311 318 324 324 322 322 319 316 317 321 327 329 323 313 313 314 316 319
212 217 222 224 222 212 211 214 208 206 217 227 227 223 222 225 224 220 224 231 231 229 230 238 248 223 160 161 181 273 304 306 283 249 243 256 257 257 257 251 251 256 259 258 252 247 245 239 238 243 237 227 232 240 245 249 254 258 260 262 264 268 274 279 285 293 301 305 307 315 321 321 319 319 317 315 315 318 324 325 317 309 308 312 317 321
211 212 217 222 224 213 204 208 209 208 216 224 228 228 226 228 230 228 225 219 216 225 235 248 252 210 150 161 316 309 282 280 275 261 261 265 265 260 250 243 246 248 246 252 256 252 248 244 243 246 240 234 238 243 245 249 255 258 259 260 260 263 270 277 283 290 297 302 307 314 318 318 317 317 316 314 315 319 323 323 319 314 312 314 316 315
211 216 217 218 229 236 226 217 217 219 219 220 224 228 230 230 231 233 236 232 228 231 236 244 252 245 232 255 288 285 272 281 279 269 266 266 266 263 253 246 245 246 241 240 245 248 247 249 251 250 245 242 243 244 245 250 255 256 258 258 256 259 266 274 281 289 296 301 306 313 316 315 315 315 313 313 317 322 324 322 319 315 311 310 310 309
208 224 224 217 228 241 242 230 223 225 226 224 222 225 230 232 231 232 236 238 238 241 241 238 243 251 255 260 270 278 283 284 278 274 269 266 263 260 264 260 245 240 243 241 239 240 241 245 248 246 244 243 242 244 245 248 251 254 256 255 254 260 268 273 280 289 296 299 305 310 312 313 314 313 311 311 316 321 322 319 316 314 310 308 309 309
215 229 229 221 227 236 241 240 235 231 231 230 227 226 227 230 231 233 236 237 237 243 247 240 235 247 257 261 264 274 283 281 276 272 264 263 265 260 267 269 254 244 243 241 240 241 240 242 243 242 243 242 241 243 244 247 250 252 252 252 256 264 268 271 281 290 294 299 305 308 309 311 312 309 308 310 314 318 319 317 315 313 311 309 309 309
222 230 228 227 230 230 233 237 238 238 235 234 233 232 231 230 229 230 234 238 239 242 244 241 242 250 257 261 266 275 278 271 268 267 263 264 268 264 262 264 261 256 251 243 241 241 241 244 245 243 242 241 241 242 244 247 249 250 252 256 263 266 266 273 284 290 295 302 306 307 308 310 308 304 305 308 313 317 319 316 313 311 310 310 309 309
220 227 226 232 237 234 232 232 232 235 237 237 237 236 236 235 233 233 235 237 240 244 244 237 239 247 253 262 273 275 269 266 269 274 274 273 273 269 261 256 255 255 254 251 244 240 242 246 246 245 243 241 242 242 245 248 249 252 257 262 264 264 266 277 285 290 297 303 305 306 308 307 304 303 305 308 312 317 319 317 314 311 310 310 309 309
220 228 229 235 242 240 239 237 234 236 240 243 242 240 238 237 239 240 239 237 241 246 242 232 237 249 259 268 271 265 260 269 277 281 281 279 276 268 256 249 248 248 251 253 248 243 246 249 248 247 246 244 242 241 244 248 250 254 259 261 261 262 269 278 285 292 299 302 304 306 304 300 301 303 306 309 313 318 320 319 316 313 313 313 311 311
222 233 229 227 234 239 240 239 238 240 243 242 239 238 238 238 240 241 239 237 242 246 243 240 247 259 267 265 260 257 261 269 275 276 275 275 273 267 260 254 250 245 247 253 253 247 249 252 252 250 248 246 244 243 245 249 252 256 258 258 258 262 272 281 287 293 298 301 305 306 300 296 299 302 305 309 314 319 321 320 319 318 317 315 313 312
221 232 233 226 229 239 240 237 238 241 241 240 239 240 241 240 240 242 241 239 240 243 249 257 263 264 263 259 255 261 266 267 269 273 275 278 278 274 270 265 254 245 244 251 254 251 249 252 251 246 245 246 245 246 248 250 251 254 254 252 254 262 275 283 289 295 298 302 308 305 296 294 299 303 306 308 313 320 323 322 321 321 320 317 314 313
223 229 234 231 231 241 242 236 234 237 236 238 243 243 240 239 241 245 247 246 245 248 252 258 261 256 254 258 262 267 269 267 270 276 279 282 280 274 269 263 253 246 245 248 252 253 251 252 249 241 238 240 241 244 245 245 246 248 246 247 255 266 276 283 292 297 297 302 313 310 295 291 297 302 304 306 312 320 322 320 321 321 320 318 317 314
228 228 232 234 236 242 241 230 228 244 242 236 238 240 237 238 241 243 247 247 248 252 251 248 250 250 251 261 266 267 267 269 276 283 283 279 274 266 262 260 253 248 247 248 250 251 253 256 255 242 233 233 234 237 239 239 240 241 242 248 260 270 278 287 295 296 293 300 314 314 299 293 297 300 304 307 312 318 320 318 319 320 319 318 318 316
232 233 235 236 236 237 240 237 234 244 245 233 233 237 235 236 238 239 245 245 241 242 242 240 245 249 251 259 262 261 266 275 284 288 279 268 268 265 259 259 256 250 248 248 248 250 252 256 253 240 231 228 228 231 235 236 236 238 244 256 266 272 282 293 298 296 295 301 310 311 304 299 298 301 305 307 308 314 318 316 316 318 317 316 316 314
232 236 238 241 237 233 241 246 241 240 243 236 231 227 223 230 238 238 241 238 228 227 236 242 248 251 252 255 253 254 266 280 291 292 267 243 259 268 261 258 255 249 246 245 246 247 250 254 254 244 231 223 223 228 234 236 237 242 252 262 272 281 290 298 301 300 299 302 304 301 299 298 299 300 304 306 306 309 313 312 311 315 315 312 312 310
232 234 235 240 239 232 236 243 243 244 246 240 236 237 233 234 236 229 233 237 231 233 243 245 244 244 246 249 247 251 267 277 288 295 258 225 246 261 261 260 253 245 243 243 245 246 247 253 255 242 223 216 222 231 235 238 244 252 259 266 279 291 296 301 305 302 295 295 294 292 294 297 299 301 302 303 302 304 306 306 307 311 312 309 306 305
234 233 231 234 238 238 239 243 246 249 251 247 245 245 233 221 213 210 230 245 239 233 238 232 224 230 239 247 250 254 264 271 280 291 279 249 248 258 264 262 250 246 246 244 241 240 242 246 242 227 217 217 226 234 237 242 249 256 263 273 283 290 294 300 305 299 288 286 289 292 295 297 298 299 299 296 295 298 301 303 305 309 310 308 303 302
232 233 235 236 239 240 242 245 248 249 251 243 236 232 216 207 211 220 237 247 206 193 215 211 209 227 245 252 258 261 267 272 275 277 274 257 249 259 268 259 244 242 240 232 227 227 233 236 229 222 225 228 231 237 241 246 253 260 270 278 281 284 291 295 294 291 288 287 289 291 293 295 297 297 294 291 293 296 299 302 305 308 308 306 302 303
231 234 237 238 239 241 242 248 251 250 247 238 227 221 215 213 217 227 238 230 201 208 230 224 224 237 252 260 267 272 275 276 271 270 266 249 244 256 263 250 236 233 229 221 218 220 224 227 225 226 230 229 230 235 241 248 258 267 275 281 280 282 288 289 287 290 292 291 291 291 293 297 298 295 293 293 294 294 297 301 304 305 305 303 303 305
231 234 238 238 240 242 244 250 257 254 240 231 222 213 213 218 227 245 251 240 227 229 234 236 239 245 253 262 268 274 278 275 268 265 256 239 240 250 253 241 229 229 231 226 219 219 219 217 217 220 224 226 232 242 250 256 265 273 277 282 283 281 281 282 286 291 291 291 293 294 294 295 292 288 288 292 292 292 297 301 302 305 305 304 306 307
226 236 248 246 243 244 244 247 252 228 184 194 202 204 209 222 239 252 255 249 243 239 239 246 255 258 261 267 273 279 282 275 263 255 246 243 249 252 244 234 227 228 230 223 213 214 213 210 210 214 221 230 238 246 252 260 271 279 280 283 287 285 281 281 284 287 289 291 294 292 288 288 287 284 288 293 292 292 298 300 301 305 306 304 305 307
228 231 242 246 250 259 258 239 177 185 168 169 206 222 224 230 243 249 251 248 244 242 243 250 259 266 271 276 280 282 281 271 255 248 245 250 258 252 235 227 227 225 220 209 205 209 209 210 210 207 212 223 232 237 245 257 268 274 276 277 279 279 278 277 280 284 288 291 291 286 283 285 286 287 292 294 291 292 296 298 299 303 304 304 306 307
232 231 234 239 248 255 249 238 245 249 231 195 209 224 223 224 241 246 247 245 244 247 252 257 263 270 275 278 279 279 275 261 248 247 245 242 246 242 230 223 223 218 205 198 205 209 208 209 211 210 218 229 236 242 252 260 262 263 267 270 271 272 273 275 279 284 287 288 287 283 282 283 285 289 293 293 290 291 295 297 300 304 306 307 308 308
229 234 233 238 246 248 244 244 250 249 235 226 221 221 223 226 237 249 253 255 261 266 269 271 274 276 278 276 275 274 269 256 247 248 241 227 229 236 231 222 220 217 208 206 213 216 212 211 211 217 232 243 247 251 259 264 266 266 267 267 269 273 276 277 279 283 285 284 282 280 279 281 284 288 290 289 290 293 296 296 301 305 306 306 307 306
232 238 237 237 243 249 245 237 232 234 240 243 243 243 245 246 252 263 268 270 275 279 280 279 279 279 276 273 270 269 265 256 246 238 225 219 229 238 231 220 219 221 219 218 220 221 223 226 225 230 244 256 264 269 274 279 281 279 276 273 273 274 277 278 279 281 282 281 280 279 278 281 283 283 282 284 289 296 297 296 300 304 303 305 306 306
247 246 240 235 243 253 249 234 234 241 243 242 245 251 256 259 262 266 270 275 280 281 279 279 280 276 272 271 269 264 257 245 233 228 224 228 237 236 222 214 218 220 221 223 224 224 229 235 237 243 252 262 268 272 274 276 276 275 275 277 276 276 277 279 281 282 282 280 280 280 280 281 282 283 284 289 295 300 299 299 302 305 304 304 305 305
257 251 243 240 245 253 251 240 239 236 222 215 231 249 258 264 267 270 274 278 279 277 275 273 270 267 264 261 260 260 254 239 230 232 234 236 236 226 211 209 217 219 220 227 230 231 235 238 241 247 255 258 262 267 272 275 277 276 273 273 275 277 278 280 281 281 281 281 282 281 281 283 285 287 291 295 299 301 301 302 304 306 304 303 302 303
257 244 233 233 231 234 249 247 241 231 219 221 232 248 262 270 270 270 276 280 276 272 270 266 263 265 263 255 252 255 248 234 229 228 228 230 232 224 208 206 217 222 225 231 238 243 249 252 254 258 261 262 265 271 276 280 281 280 277 275 276 278 279 279 278 278 279 281 280 279 282 285 288 291 294 296 298 300 301 301 302 304 303 302 301 302
Height
3185 3184 3184 3184 3184 3185 3186 3186 3186 3185 3184 3187 3189 3188 3188 3191 3194 3197 3198 3199 3201 3201 3201 3202 3203 3205 3206 3206 3207 3207 3207 3208 3208 3209 3209 3208 3208 3207 3208 3208 3209 3209 3208 3209 3210 3210 3211 3211 3212 3212 3212 3212 3212 3212 3212 3213 3213 3213 3213 3213 3213 3213 3213 3213 3213 3213 3212 3211 3210 3210 3210 3209 3209 3208 3208 3207 3207 3206 3205 3204 3204 3203 3202 3201 3200 3199
3183 3182 3182 3182 3183 3185 3185 3186 3186 3185 3184 3185 3188 3187 3187 3189 3191 3193 3195 3197 3199 3200 3200 3201 3203 3204 3205 3205 3206 3206 3206 3207 3208 3208 3208 3208 3208 3208 3208 3208 3209 3209 3209 3209 3210 3210 3210 3210 3211 3212 3212 3212 3212 3212 3212 3212 3212 3212 3212 3212 3212 3212 3212 3213 3213 3212 3211 3211 3210 3209 3209 3209 3208 3207 3206 3205 3205 3204 3204 3202 3202 3201 3200 3199 3198 3196
3180 3179 3180 3181 3182 3183 3185 3186 3186 3186 3187 3186 3186 3186 3185 3186 3188 3190 3193 3195 3198 3199 3199 3200 3202 3202 3203 3204 3205 3205 3205 3206 3207 3207 3207 3207 3207 3208 3207 3208 3208 3208 3209 3209 3209 3209 3210 3210 3211 3211 3212 3212 3212 3212 3212 3212 3212 3212 3212 3212 3212 3212 3212 3212 3212 3212 3211 3210 3209 3208 3208 3207 3207 3206 3205 3204 3203 3202 3201 3201 3200 3198 3197 3196 3195 3194
3177 3177 3179 3181 3181 3182 3183 3184 3185 3187 3188 3187 3184 3184 3183 3183 3184 3188 3191 3193 3196 3197 3197 3199 3200 3200 3201 3203 3204 3205 3205 3205 3206 3206 3207 3207 3207 3207 3207 3207 3207 3208 3208 3208 3209 3209 3210 3210 3211 3211 3211 3211 3212 3212 3212 3212 3212 3212 3212 3212 3212 3212 3212 3212 3212 3211 3210 3210 3209 3207 3207 3205 3204 3204 3202 3201 3201 3199 3198 3199 3197 3195 3195 3194 3192 3191
3175 3176 3178 3179 3180 3181 3183 3184 3185 3186 3186 3187 3185 3182 3182 3182 3183 3187 3189 3191 3194 3196 3195 3197 3198 3198 3199 3201 3202 3203 3205 3205 3205 3206 3206 3206 3206 3206 3207 3207 3207 3207 3207 3208 3209 3209 3210 3210 3210 3211 3211 3211 3211 3212 3212 3212 3212 3212 3212 3212 3212 3212 3212 3211 3211 3210 3209 3209 3207 3206 3205 3204 3202 3201 3200 3199 3198 3197 3195 3195 3194 3193 3192 3191 3190 3189
3173 3175 3176 3177 3178 3180 3182 3183 3184 3184 3183 3184 3184 3182 3181 3181 3182 3186 3187 3189 3193 3194 3194 3195 3196 3196 3197 3199 3201 3202 3203 3204 3204 3205 3206 3206 3205 3205 3206 3206 3206 3207 3206 3207 3209 3209 3209 3210 3210 3210 3211 3211 3211 3211 3211 3211 3212 3212 3212 3212 3212 3211 3211 3210 3210 3209 3208 3207 3206 3204 3203 3201 3200 3199 3197 3196 3195 3194 3193 3192 3191 3190 3189 3189 3188 3187
3171 3173 3174 3175 3177 3179 3181 3181 3182 3183 3181 3180 3180 3181 3181 3180 3182 3183 3183 3187 3191 3191 3190 3192 3193 3195 3197 3197 3199 3201 3202 3202 3202 3203 3203 3204 3204 3204 3204 3204 3204 3206 3206 3205 3207 3208 3208 3208 3209 3209 3210 3210 3210 3210 3211 3211 3211 3211 3211 3211 3210 3210 3210 3209 3209 3208 3207 3206 3204 3203 3201 3199 3198 3196 3194 3193 3192 3191 3190 3189 3188 3188 3187 3186 3186 3185
3169 3171 3173 3174 3176 3178 3179 3179 3180 3182 3180 3177 3177 3180 3182 3183 3183 3183 3183 3186 3188 3187 3186 3189 3191 3192 3193 3194 3196 3198 3199 3199 3200 3200 3201 3201 3202 3202 3203 3203 3203 3203 3204 3204 3205 3207 3207 3207 3208 3209 3209 3209 3209 3209 3210 3210 3210 3210 3209 3209 3209 3209 3208 3208 3207 3206 3205 3204 3202 3201 3199 3197 3195 3194 3192 3191 3189 3188 3187 3186 3186 3185 3185 3184 3183 3183
3168 3169 3171 3173 3175 3176 3177 3177 3179 3180 3179 3178 3178 3179 3182 3184 3185 3184 3185 3185 3185 3184 3184 3187 3191 3190 3190 3191 3193 3195 3196 3196 3197 3198 3199 3200 3199 3200 3201 3201 3201 3201 3202 3203 3204 3206 3206 3206 3207 3208 3208 3208 3208 3208 3209 3209 3208 3208 3208 3208 3208 3208 3207 3206 3205 3204 3203 3201 3199 3198 3196 3195 3193 3192 3191 3189 3188 3186 3185 3184 3183 3183 3182 3181 3181 3180
3166 3168 3170 3172 3173 3173 3175 3175 3176 3178 3178 3178 3180 3180 3182 3184 3184 3184 3184 3183 3183 3183 3184 3186 3189 3189 3189 3189 3189 3191 3192 3193 3194 3195 3196 3197 3197 3197 3197 3199 3199 3199 3200 3201 3203 3204 3204 3205 3206 3207 3207 3207 3207 3207 3207 3207 3207 3207 3207 3207 3207 3206 3206 3205 3204 3202 3200 3198 3196 3195 3193 3192 3191 3189 3188 3187 3186 3185 3184 3183 3182 3181 3180 3179 3178 3177
3165 3167 3169 3170 3171 3171 3173 3174 3175 3177 3178 3178 3180 3181 3182 3183 3183 3183 3183 3182 3180 3180 3182 3183 3184 3186 3185 3184 3184 3185 3187 3189 3191 3192 3193 3194 3195 3195 3195 3196 3197 3197 3197 3198 3201 3202 3203 3204 3205 3205 3206 3206 3205 3205 3206 3206 3206 3206 3206 3206 3205 3205 3204 3203 3202 3200 3198 3196 3194 3192 3191 3189 3188 3187 3186 3185 3184 3183 3182 3181 3180 3179 3178 3177 3176 3175
3164 3166 3167 3168 3169 3170 3172 3173 3175 3177 3178 3179 3179 3180 3181 3181 3182 3183 3183 3184 3181 3178 3179 3179 3178 3180 3181 3181 3180 3180 3182 3184 3186 3188 3189 3190 3191 3192 3193 3194 3195 3194 3195 3196 3198 3199 3200 3201 3202 3203 3204 3204 3203 3204 3204 3204 3204 3205 3205 3204 3204 3204 3203 3202 3201 3199 3197 3195 3193 3191 3189 3187 3186 3185 3184 3183 3182 3181 3180 3179 3179 3178 3177 3175 3174 3173
3163 3164 3166 3167 3169 3169 3170 3172 3174 3176 3178 3178 3177 3177 3178 3177 3180 3182 3179 3179 3180 3177 3176 3176 3175 3175 3176 3178 3179 3179 3180 3182 3182 3184 3186 3187 3188 3189 3190 3191 3193 3193 3192 3194 3195 3197 3197 3198 3200 3201 3201 3201 3202 3202 3203 3203 3203 3203 3203 3203 3203 3202 3202 3201 3200 3198 3196 3194 3191 3189 3187 3186 3184 3183 3182 3181 3180 3179 3178 3178 3177 3176 3175 3173 3172 3171
3160 3162 3164 3166 3167 3168 3169 3169 3171 3173 3175 3175 3174 3175 3175 3174 3176 3179 3176 3174 3174 3172 3172 3174 3175 3175 3175 3175 3177 3178 3179 3180 3180 3182 3183 3185 3186 3186 3187 3189 3191 3192 3191 3191 3192 3194 3195 3195 3197 3198 3199 3200 3200 3201 3201 3201 3202 3202 3202 3202 3201 3201 3200 3200 3198 3197 3195 3193 3190 3188 3186 3184 3183 3181 3180 3179 3178 3177 3176 3175 3174 3173 3172 3171 3170 3169
3155 3157 3160 3162 3164 3166 3167 3167 3168 3170 3172 3173 3172 3173 3173 3171 3172 3172 3171 3170 3170 3168 3169 3172 3175 3176 3175 3174 3174 3176 3178 3179 3180 3180 3181 3183 3184 3185 3186 3186 3188 3190 3189 3188 3189 3191 3192 3192 3193 3195 3197 3199 3200 3200 3199 3199 3200 3201 3200 3200 3200 3199 3199 3198 3197 3195 3193 3191 3189 3187 3184 3182 3181 3180 3178 3177 3177 3176 3175 3174 3173 3171 3170 3169 3167 3166
3152 3153 3157 3160 3162 3164 3165 3166 3168 3169 3169 3170 3171 3171 3171 3170 3170 3169 3168 3168 3169 3168 3168 3171 3173 3173 3173 3172 3173 3175 3176 3177 3179 3179 3180 3181 3182 3184 3185 3185 3185 3187 3187 3186 3186 3187 3189 3189 3190 3192 3196 3198 3200 3198 3197 3197 3198 3199 3199 3198 3198 3197 3197 3196 3195 3194 3193 3191 3188 3186 3183 3181 3179 3178 3177 3175 3175 3174 3173 3171 3170 3169 3167 3166 3164 3163
3149 3150 3153 3158 3161 3163 3164 3165 3167 3167 3165 3167 3169 3168 3167 3168 3169 3167 3166 3167 3170 3169 3166 3168 3168 3169 3170 3169 3170 3173 3175 3176 3177 3178 3178 3179 3180 3181 3182 3183 3183 3184 3186 3186 3183 3183 3186 3187 3188 3191 3194 3196 3197 3196 3195 3195 3196 3197 3197 3196 3196 3195 3195 3194 3194 3193 3191 3190 3187 3185 3182 3180 3178 3176 3175 3173 3172 3171 3170 3169 3167 3166 3164 3163 3162 3160
3146 3145 3149 3155 3158 3160 3162 3164 3165 3165 3163 3163 3166 3166 3166 3168 3169 3168 3166 3166 3170 3169 3165 3165 3165 3165 3166 3165 3166 3170 3173 3174 3175 3176 3177 3177 3178 3178 3179 3180 3180 3181 3183 3184 3183 3181 3182 3185 3186 3187 3191 3193 3195 3195 3194 3193 3193 3195 3194 3194 3194 3193 3193 3193 3192 3191 3190 3188 3186 3184 3182 3179 3177 3175 3173 3172 3170 3169 3168 3166 3165 3163 3162 3161 3160 3159
3144 3144 3148 3154 3156 3158 3161 3162 3162 3163 3163 3162 3163 3164 3164 3166 3168 3170 3168 3166 3167 3167 3163 3161 3162 3162 3163 3163 3166 3169 3171 3173 3174 3175 3175 3176 3176 3176 3176 3178 3178 3177 3179 3181 3181 3180 3179 3182 3184 3184 3187 3191 3193 3193 3192 3190 3190 3191 3192 3191 3192 3191 3191 3191 3190 3189 3188 3187 3185 3182 3181 3178 3176 3174 3172 3171 3169 3167 3166 3165 3163 3161 3160 3159 3158 3157
3142 3144 3147 3151 3153 3156 3159 3159 3158 3160 3162 3162 3163 3163 3163 3163 3164 3166 3167 3166 3164 3162 3160 3159 3158 3159 3160 3161 3164 3167 3169 3172 3173 3173 3174 3174 3174 3174 3174 3175 3176 3176 3176 3176 3178 3178 3177 3178 3180 3181 3183 3187 3190 3190 3189 3187 3186 3189 3189 3189 3190 3189 3189 3189 3188 3187 3186 3185 3183 3181 3179 3177 3175 3173 3171 3169 3168 3166 3164 3163 3162 3160 3159 3157 3156 3155
3141 3143 3145 3147 3151 3153 3154 3155 3155 3157 3159 3162 3163 3162 3162 3162 3162 3162 3164 3165 3163 3160 3160 3160 3159 3158 3159 3160 3163 3166 3168 3170 3171 3172 3172 3172 3173 3173 3173 3173 3173 3173 3173 3173 3174 3176 3176 3175 3177 3178 3180 3184 3186 3186 3186 3185 3184 3186 3187 3187 3188 3187 3187 3187 3187 3186 3184 3183 3182 3180 3178 3175 3173 3171 3169 3167 3166 3164 3163 3161 3160 3159 3157 3156 3154 3153
3141 3142 3143 3145 3147 3150 3151 3152 3154 3155 3155 3158 3160 3161 3159 3159 3161 3162 3161 3161 3162 3161 3160 3161 3160 3158 3159 3161 3164 3166 3168 3169 3170 3171 3171 3171 3171 3171 3171 3172 3171 3171 3171 3171 3170 3171 3172 3173 3175 3177 3179 3182 3183 3181 3181 3182 3183 3184 3184 3184 3186 3185 3185 3185 3184 3184 3183 3181 3180 3178 3176 3174 3171 3169 3167 3165 3164 3162 3160 3158 3157 3156 3155 3154 3153 3151
3141 3141 3142 3143 3145 3148 3149 3150 3152 3153 3154 3154 3156 3158 3158 3157 3158 3160 3159 3158 3160 3160 3160 3161 3160 3159 3160 3162 3164 3165 3167 3168 3169 3169 3170 3170 3170 3170 3170 3170 3170 3169 3169 3169 3168 3168 3170 3173 3175 3175 3176 3178 3178 3178 3179 3180 3181 3182 3181 3182 3183 3183 3183 3182 3181 3181 3181 3180 3178 3176 3175 3172 3170 3168 3166 3164 3162 3160 3158 3156 3155 3153 3152 3151 3151 3149
3141 3140 3140 3142 3144 3145 3147 3148 3149 3151 3153 3152 3151 3153 3155 3154 3155 3157 3158 3157 3158 3159 3160 3160 3159 3158 3159 3161 3163 3164 3166 3167 3167 3167 3167 3168 3169 3169 3169 3169 3168 3167 3168 3168 3167 3168 3169 3171 3173 3173 3172 3173 3174 3176 3178 3178 3179 3179 3179 3179 3180 3180 3181 3180 3179 3178 3177 3177 3176 3175 3173 3171 3168 3166 3164 3162 3161 3159 3157 3155 3154 3153 3150 3149 3148 3148
3138 3139 3139 3139 3140 3141 3144 3145 3145 3148 3151 3150 3149 3150 3151 3151 3152 3154 3155 3156 3158 3160 3161 3160 3158 3158 3159 3160 3161 3163 3165 3166 3166 3166 3166 3166 3166 3167 3167 3167 3166 3166 3165 3165 3165 3166 3167 3168 3170 3169 3168 3170 3172 3174 3176 3176 3176 3176 3177 3177 3178 3177 3177 3178 3178 3176 3175 3174 3173 3172 3171 3169 3166 3164 3162 3161 3160 3158 3156 3155 3153 3151 3149 3147 3146 3145
3135 3137 3138 3137 3136 3136 3138 3140 3142 3146 3149 3149 3149 3148 3148 3149 3150 3150 3151 3153 3155 3159 3160 3158 3156 3157 3159 3159 3160 3162 3164 3164 3165 3165 3165 3164 3164 3164 3165 3165 3165 3164 3164 3163 3162 3162 3163 3164 3165 3165 3166 3168 3170 3172 3173 3173 3174 3174 3174 3175 3175 3174 3174 3175 3175 3174 3173 3172 3171 3169 3168 3166 3164 3162 3160 3159 3158 3156 3155 3153 3151 3149 3147 3146 3144 3143
3134 3135 3136 3137 3136 3133 3133 3137 3142 3145 3146 3146 3147 3147 3146 3147 3148 3149 3149 3148 3151 3155 3155 3154 3155 3157 3158 3158 3160 3161 3161 3162 3163 3164 3164 3163 3163 3162 3162 3162 3163 3162 3162 3162 3160 3159 3159 3160 3161 3163 3165 3166 3168 3169 3170 3170 3171 3170 3171 3173 3172 3171 3171 3172 3172 3171 3170 3170 3169 3167 3165 3163 3162 3160 3158 3157 3156 3154 3153 3151 3149 3147 3146 3145 3144 3142
3133 3133 3133 3135 3136 3134 3134 3136 3139 3141 3141 3141 3144 3145 3144 3145 3145 3146 3146 3146 3149 3151 3150 3151 3155 3156 3157 3157 3159 3159 3160 3161 3161 3161 3162 3161 3161 3160 3159 3159 3159 3159 3159 3160 3159 3158 3158 3158 3160 3161 3163 3164 3165 3166 3167 3167 3167 3168 3169 3168 3167 3168 3170 3170 3169 3169 3168 3167 3167 3165 3163 3161 3159 3158 3157 3155 3154 3153 3151 3149 3147 3146 3145 3143 3142 3141
3132 3131 3130 3133 3134 3135 3135 3135 3135 3136 3136 3137 3139 3140 3141 3142 3142 3143 3144 3145 3148 3148 3147 3150 3153 3155 3156 3156 3157 3158 3158 3159 3159 3159 3159 3158 3158 3158 3156 3155 3155 3155 3157 3157 3157 3157 3157 3157 3158 3159 3161 3161 3162 3163 3164 3164 3165 3165 3164 3163 3164 3166 3168 3168 3167 3166 3165 3165 3164 3162 3160 3159 3157 3156 3154 3153 3152 3151 3149 3147 3145 3144 3143 3141 3140 3139
3129 3128 3130 3132 3132 3132 3134 3133 3133 3133 3134 3135 3136 3136 3137 3138 3139 3140 3142 3143 3144 3144 3146 3149 3150 3152 3154 3154 3155 3156 3156 3155 3155 3155 3155 3155 3155 3154 3154 3153 3152 3152 3153 3154 3154 3155 3155 3155 3155 3157 3158 3158 3159 3160 3161 3161 3162 3161 3159 3161 3163 3164 3165 3165 3165 3164 3163 3162 3161 3159 3158 3156 3155 3154 3152 3151 3150 3149 3147 3145 3143 3142 3141 3139 3138 3136
3126 3126 3128 3129 3127 3127 3128 3129 3130 3131 3132 3133 3132 3132 3133 3134 3135 3136 3138 3140 3140 3141 3143 3146 3147 3149 3151 3151 3152 3153 3152 3151 3152 3152 3152 3151 3151 3151 3151 3151 3150 3149 3150 3150 3151 3152 3152 3152 3153 3154 3155 3155 3157 3158 3158 3158 3158 3156 3156 3158 3161 3162 3162 3163 3162 3161 3161 3159 3158 3156 3155 3153 3152 3151 3150 3149 3148 3146 3145 3143 3142 3140 3139 3137 3136 3134
3125 3125 3127 3127 3126 3125 3126 3127 3128 3131 3132 3131 3129 3129 3131 3131 3132 3133 3134 3136 3138 3138 3141 3143 3144 3146 3148 3149 3150 3150 3150 3150 3150 3149 3149 3147 3147 3147 3147 3147 3147 3147 3147 3147 3147 3148 3149 3149 3149 3150 3152 3153 3154 3154 3155 3155 3154 3152 3153 3155 3158 3159 3160 3160 3160 3159 3158 3156 3155 3153 3152 3151 3150 3149 3147 3146 3145 3144 3143 3141 3140 3138 3136 3135 3133 3131
3124 3124 3125 3126 3127 3126 3127 3128 3130 3132 3130 3125 3125 3127 3128 3128 3129 3130 3131 3134 3136 3137 3139 3141 3142 3144 3146 3146 3147 3147 3148 3148 3147 3147 3145 3144 3143 3143 3143 3142 3142 3143 3143 3144 3144 3145 3146 3146 3146 3147 3149 3150 3151 3151 3152 3153 3151 3149 3150 3153 3156 3157 3157 3157 3157 3156 3155 3154 3152 3150 3149 3148 3147 3146 3145 3144 3143 3142 3141 3139 3138 3136 3134 3133 3131 3129
3123 3123 3123 3125 3126 3126 3126 3128 3130 3129 3124 3121 3124 3126 3125 3126 3128 3128 3129 3133 3135 3136 3138 3140 3141 3143 3144 3143 3144 3144 3145 3145 3144 3143 3141 3140 3139 3139 3138 3138 3138 3139 3140 3141 3141 3142 3143 3143 3144 3144 3145 3147 3148 3149 3150 3151 3150 3148 3150 3152 3154 3155 3155 3154 3154 3153 3152 3151 3149 3147 3147 3146 3145 3144 3143 3141 3141 3140 3138 3137 3135 3134 3132 3131 3129 3127
3120 3121 3122 3123 3124 3124 3124 3126 3126 3123 3121 3122 3125 3125 3124 3126 3128 3128 3129 3132 3134 3136 3138 3139 3140 3141 3142 3141 3141 3141 3141 3141 3140 3139 3138 3137 3137 3136 3136 3135 3135 3136 3137 3138 3138 3139 3140 3141 3141 3141 3142 3143 3145 3146 3147 3149 3149 3149 3150 3151 3152 3153 3153 3152 3151 3149 3149 3148 3146 3145 3144 3143 3142 3141 3140 3139 3138 3137 3136 3134 3133 3132 3130 3128 3126 3124
3118 3119 3120 3121 3122 3122 3122 3122 3122 3121 3121 3123 3124 3124 3125 3127 3128 3129 3129 3131 3134 3135 3136 3138 3138 3139 3140 3139 3139 3139 3139 3138 3137 3136 3135 3134 3134 3134 3134 3133 3133 3134 3134 3135 3135 3136 3137 3138 3138 3138 3138 3140 3141 3143 3145 3146 3148 3148 3148 3149 3150 3150 3150 3149 3148 3147 3146 3145 3144 3142 3141 3140 3139 3138 3137 3136 3135 3134 3132 3131 3130 3129 3127 3125 3124 3121
3117 3117 3118 3118 3119 3120 3119 3118 3119 3120 3121 3121 3122 3123 3125 3126 3127 3128 3128 3130 3132 3133 3134 3135 3136 3137 3137 3137 3138 3137 3136 3135 3134 3133 3133 3133 3132 3132 3132 3132 3132 3132 3132 3133 3133 3134 3134 3135 3135 3135 3136 3137 3139 3140 3142 3144 3145 3146 3146 3147 3147 3147 3147 3146 3145 3144 3143 3142 3141 3140 3138 3138 3137 3135 3135 3133 3132 3131 3130 3129 3128 3126 3124 3122 3120 3118
3115 3115 3117 3117 3117 3118 3117 3115 3116 3117 3117 3118 3120 3122 3123 3125 3126 3127 3127 3128 3129 3131 3132 3133 3134 3134 3135 3135 3136 3135 3134 3134 3133 3131 3131 3132 3131 3130 3130 3130 3130 3130 3130 3131 3131 3131 3132 3132 3133 3133 3134 3136 3137 3139 3141 3142 3142 3143 3144 3145 3145 3144 3143 3143 3142 3142 3140 3139 3139 3137 3136 3135 3134 3133 3131 3130 3129 3128 3127 3126 3125 3123 3121 3119 3117 3115
3113 3114 3115 3116 3115 3115 3115 3114 3113 3113 3113 3116 3119 3120 3121 3123 3124 3125 3125 3125 3126 3128 3129 3130 3131 3132 3133 3133 3133 3133 3132 3133 3132 3131 3130 3130 3130 3129 3129 3129 3128 3128 3128 3129 3129 3129 3130 3130 3131 3131 3132 3134 3135 3137 3138 3139 3140 3141 3142 3142 3142 3141 3140 3140 3139 3138 3137 3136 3136 3135 3133 3132 3131 3130 3128 3127 3126 3125 3125 3124 3122 3120 3118 3116 3114 3112
3111 3111 3112 3113 3112 3113 3113 3112 3111 3111 3111 3114 3117 3118 3119 3121 3122 3123 3122 3122 3124 3125 3126 3127 3128 3130 3131 3132 3132 3131 3131 3131 3131 3130 3129 3129 3129 3128 3127 3127 3127 3126 3127 3127 3127 3127 3128 3128 3129 3129 3131 3132 3134 3135 3136 3137 3138 3139 3139 3139 3140 3139 3138 3138 3136 3135 3134 3134 3133 3132 3130 3129 3127 3126 3125 3124 3122 3122 3121 3120 3119 3117 3115 3113 3111 3109
3108 3109 3109 3109 3111 3112 3112 3110 3108 3109 3110 3112 3115 3117 3118 3119 3120 3120 3119 3119 3122 3123 3124 3125 3127 3128 3129 3130 3130 3130 3129 3129 3129 3128 3128 3129 3127 3125 3125 3125 3125 3125 3125 3125 3125 3126 3126 3127 3128 3129 3130 3132 3133 3133 3134 3135 3135 3136 3136 3136 3136 3136 3136 3136 3134 3132 3132 3131 3130 3129 3127 3126 3124 3122 3121 3120 3118 3118 3117 3116 3114 3113 3111 3110 3107 3105
3104 3105 3105 3106 3108 3109 3110 3107 3106 3106 3108 3111 3114 3115 3116 3117 3117 3116 3116 3118 3120 3122 3123 3124 3125 3126 3127 3127 3128 3128 3127 3127 3127 3126 3127 3127 3125 3123 3123 3124 3123 3123 3123 3123 3124 3125 3125 3126 3127 3128 3129 3131 3131 3131 3132 3132 3133 3134 3134 3134 3133 3133 3133 3133 3131 3130 3128 3127 3127 3126 3124 3122 3121 3119 3118 3116 3114 3113 3113 3112 3111 3109 3108 3106 3104 3101
3101 3102 3101 3102 3104 3106 3107 3106 3105 3104 3105 3109 3113 3113 3113 3115 3114 3113 3114 3116 3118 3120 3122 3122 3123 3124 3124 3124 3125 3125 3125 3125 3125 3124 3124 3124 3122 3121 3121 3122 3121 3122 3122 3122 3123 3123 3124 3125 3126 3127 3127 3128 3128 3129 3129 3130 3131 3131 3131 3131 3130 3130 3129 3128 3128 3127 3125 3124 3123 3122 3120 3119 3118 3116 3114 3113 3112 3110 3109 3108 3106 3105 3103 3102 3100 3098
3099 3100 3099 3099 3101 3102 3103 3104 3104 3103 3105 3108 3110 3110 3111 3112 3112 3112 3113 3115 3116 3118 3119 3120 3121 3121 3121 3121 3121 3121 3122 3123 3122 3122 3121 3120 3118 3118 3119 3119 3120 3120 3120 3120 3121 3121 3122 3123 3124 3125 3125 3126 3127 3127 3127 3127 3128 3128 3127 3127 3126 3125 3125 3124 3123 3123 3122 3120 3119 3118 3116 3114 3113 3111 3110 3110 3109 3107 3106 3104 3102 3101 3099 3097 3096 3094
3097 3097 3097 3098 3100 3101 3101 3102 3103 3104 3106 3107 3108 3109 3110 3111 3110 3110 3112 3113 3114 3115 3116 3117 3118 3118 3117 3117 3117 3116 3117 3119 3119 3118 3117 3117 3116 3116 3117 3117 3117 3118 3119 3119 3118 3119 3120 3120 3121 3123 3124 3124 3124 3124 3124 3124 3125 3124 3123 3122 3122 3121 3121 3120 3119 3119 3118 3116 3115 3114 3111 3110 3109 3107 3106 3106 3105 3104 3102 3100 3098 3096 3094 3093 3092 3090
3094 3095 3096 3099 3100 3100 3101 3102 3103 3104 3105 3107 3108 3108 3109 3108 3107 3107 3109 3111 3111 3112 3113 3114 3114 3114 3114 3114 3113 3112 3113 3115 3115 3113 3114 3115 3115 3114 3114 3115 3115 3116 3117 3116 3116 3117 3118 3118 3118 3121 3121 3120 3121 3121 3122 3122 3122 3121 3119 3119 3118 3118 3118 3116 3115 3115 3114 3113 3112 3110 3108 3107 3106 3104 3102 3102 3101 3100 3099 3097 3094 3092 3090 3090 3088 3086
3093 3094 3096 3098 3099 3099 3100 3102 3103 3103 3104 3105 3106 3105 3104 3104 3104 3105 3107 3108 3109 3109 3110 3110 3110 3111 3111 3110 3110 3109 3109 3111 3111 3111 3112 3113 3112 3110 3111 3112 3112 3112 3113 3113 3113 3115 3116 3116 3117 3118 3117 3117 3118 3119 3119 3119 3118 3117 3117 3117 3116 3114 3114 3113 3112 3111 3110 3110 3109 3107 3105 3105 3104 3102 3099 3098 3097 3096 3095 3093 3092 3089 3087 3086 3085 3083
3090 3091 3094 3097 3097 3098 3099 3100 3101 3101 3102 3103 3103 3101 3100 3101 3103 3104 3104 3105 3106 3106 3107 3106 3106 3107 3107 3107 3107 3106 3106 3108 3109 3108 3108 3108 3108 3107 3108 3109 3110 3110 3110 3111 3112 3113 3113 3113 3114 3114 3114 3114 3115 3116 3115 3115 3114 3114 3114 3113 3112 3111 3109 3109 3109 3108 3107 3106 3105 3103 3102 3102 3101 3100 3098 3096 3094 3093 3091 3090 3090 3088 3084 3081 3080 3078
3088 3089 3093 3095 3096 3097 3098 3097 3097 3098 3101 3103 3100 3097 3097 3099 3101 3102 3102 3103 3103 3103 3103 3103 3104 3104 3104 3104 3104 3103 3103 3105 3105 3103 3103 3103 3104 3105 3105 3106 3108 3108 3109 3110 3110 3110 3111 3112 3112 3112 3112 3113 3113 3113 3113 3113 3113 3113 3111 3109 3107 3107 3106 3105 3104 3104 3103 3102 3101 3099 3098 3098 3097 3095 3094 3092 3091 3089 3087 3085 3086 3085 3081 3078 3077 3075
3089 3090 3092 3093 3094 3096 3095 3093 3093 3096 3099 3099 3096 3094 3095 3097 3099 3099 3100 3100 3100 3100 3100 3101 3101 3100 3100 3101 3101 3099 3099 3100 3100 3099 3100 3100 3100 3101 3103 3104 3105 3105 3106 3107 3108 3108 3109 3109 3109 3110 3110 3111 3111 3111 3111 3110 3110 3110 3109 3105 3103 3103 3102 3101 3100 3099 3099 3099 3098 3095 3093 3093 3093 3091 3089 3088 3087 3086 3083 3081 3081 3081 3078 3075 3074 3072
3088 3089 3090 3091 3092 3093 3092 3089 3090 3093 3095 3095 3094 3094 3094 3095 3096 3096 3097 3097 3098 3098 3098 3098 3097 3096 3096 3097 3096 3095 3094 3095 3095 3097 3098 3097 3097 3098 3100 3101 3102 3102 3104 3105 3106 3106 3107 3106 3107 3107 3108 3108 3108 3107 3107 3106 3105 3105 3104 3102 3100 3099 3098 3097 3096 3095 3095 3095 3094 3091 3090 3090 3089 3087 3086 3084 3083 3082 3081 3078 3076 3076 3075 3072 3070 3068